Flag for U.S.A. Weather past 2 weeks in Independence, Missouri, U.S.A.

Now
54 °F

Clear.


Feels Like: 51 °F
Forecast: 51 / 69 °F
Wind: 9 mph from Southeast

Location: Lee's Summit Municipal Airport

Current Time: Oct 22, 2014 at 2:25:54 AM

Latest Report: Oct 22, 2014 at 1:53 AM


Visibility: 10 mi

Pressure: 30.13 "Hg

Humidity: 72%

Dew point: 45 °F

Location of IndependenceLocation

Historic Weather in Independence — Graph

°F

Independence temperature yesterday

Maximum temperature yesterday: 73 °F (at 2:53 PM)
Minimum temperature yesterday: 46 °F (at 2:53 AM)
Average temperature yesterday: 60 °F

Past Weeks' High & Low Weather Summary

 TemperatureHumidityPressure
High77 °F (Oct 16, 3:53 PM)97% (Oct 9, 10:53 AM)30.25 "Hg (Oct 9, 10:53 AM)
Low42 °F (Oct 11, 7:53 AM)32% (Oct 21, 3:53 PM)29.47 "Hg (Oct 13, 2:53 PM)
Average58 °F69%29.97 "Hg
* Reported Oct 7 12:53 AM — Oct 22 12:53 AM, Independence, Weather by CustomWeather, © 2014

Note: Actual official high and low records may vary slightly from our data, if they occured in-between our weather recording intervals... More about our weather records

Advertising

Independence weather history for previous 24 hours

 ConditionsComfort  
Time TempWeatherWind HumidityBarometerVisibility
12:53 AM
Oct 22
56 °FClear.9 mph65%30.12 "Hg10 mi
11:53 PM
Oct 21
55 °FClear.9 mph67%30.12 "Hg10 mi
10:53 PM55 °FClear.8 mph62%30.12 "Hg10 mi
9:53 PM60 °FClear.6 mph52%30.11 "Hg10 mi
8:53 PM61 °FClear.6 mph52%30.11 "Hg10 mi
7:53 PM63 °FClear.6 mph48%30.09 "Hg10 mi
6:53 PM67 °FSunny.6 mph44%30.08 "Hg10 mi
5:53 PM69 °FSunny.5 mph41%30.07 "Hg10 mi
4:53 PM72 °FSunny.5 mph35%30.07 "Hg10 mi
3:53 PM73 °FSunny.3 mph32%30.08 "Hg10 mi
2:53 PM73 °FSunny.3 mph34%30.08 "Hg10 mi
1:53 PM71 °FSunny.No wind34%30.10 "Hg10 mi
12:53 PM70 °FSunny.6 mph39%30.12 "Hg10 mi
11:53 AM68 °FSunny.No wind45%30.14 "Hg10 mi
10:53 AM65 °FSunny.3 mph54%30.14 "Hg10 mi
9:53 AM60 °FSunny.No wind58%30.14 "Hg10 mi
8:53 AM51 °FSunny.No wind83%30.14 "Hg10 mi
7:53 AM47 °FClear.No wind86%30.12 "Hg10 mi
6:53 AM50 °FClear.No wind77%30.11 "Hg10 mi
5:53 AM49 °FClear.3 mph80%30.10 "Hg10 mi
4:53 AM48 °FClear.3 mph86%30.09 "Hg10 mi
3:53 AM48 °FClear.3 mph86%30.07 "Hg10 mi
2:53 AM46 °FClear.3 mph86%30.07 "Hg10 mi
Weather by CustomWeather, © 2014

See weather overviewHow to use our weather pages